User: anonymous   Login
Location: Pabrico
(37.5827°N, 122.0063°W)
Time: 17:54:02
(UTC+00:00)
Language:

Cosmos 1867 - Orbit

View from above orbital plane
View from above orbital plane
View from above satellite
View from above satellite

Ground track
Ground track

The orbit data is extracted from the following two-line orbital elements,

1 18187U 87060A   24176.66165926 -.00000015  00000-0  32120-4 0  9996
2 18187  65.0106 251.2683 0020986 271.6280  88.2400 14.31309335930751
Epoch (UTC): 24 June 2024 15:52:47
Eccentricity: 0.0020986
inclination: 65.0106°
perigee height: 772 km
apogee height: 802 km
right ascension of ascending node: 251.2683°
argument of perigee: 271.6280°
revolutions per day: 14.31309335
mean anomaly at epoch: 88.2400°
orbit number at epoch: 93075

The dashed part of the orbit path shows where the satellite is in the earth's shadow,  

DLR